Location: Pittman
(37.9557°N, 80.9209°W)
Time: 14:43:35
(UTC+00:00)

Envisat - Pass Details

Date: 24 April 2026
Orbit: 761 x 762 km, 98.4° (Epoch: 15 May)

Event Time Altitude Azimuth Distance (km) Brightness Sun altitude
Rises 07:18:44 0° 23° (NNE) 3,229 7.3 -32.2°
Reaches altitude 10° 07:21:15 10° 32° (NNE) 2,299 6.3 -32.0°
Enters shadow 07:25:36 34° 91° (E) 1,241 4.2 -31.5°
